Location: Risskov
(56.1972°N, 10.2480°E)
Time: 13:05:49
(UTC+00:00)

Meteor 1-11 - Pass Details

Date: 05 July 2020
Orbit: 842 x 886 km, 81.2° (Epoch: 07 August)

Event Time Altitude Azimuth Distance (km) Brightness Sun altitude
Rises 21:06:27 0° 191° (S) 3,407 6.9 -5.9°
Reaches altitude 10° 21:08:51 10° 191° (S) 2,481 6.2 -6.1°
Maximum altitude 21:14:29 87° 104° (ESE) 871 4.3 -6.5°
Drops below altitude 10° 21:20:15 10° 15° (NNE) 2,528 7.4 -6.9°
Sets 21:22:43 0° 16° (NNE) 3,476 8.2 -7.1°
